This is the latest recevied weather packets stored in our database for station/object NK2J. If no packets are shown the sender has not sent any weather packets the latest 10 day(s).
| Time | Temp. | Humidity | Pressure | Rain* | Wind** | Luminosity | Snow |
|---|---|---|---|---|---|---|---|
| 1777605648 | 28.33° C | 17% | 1007.1 hPa | 0 mm | - | 0 W/m² | - |
| 1777605348 | 28.33° C | 17% | 1007 hPa | 0 mm | - | 0 W/m² | - |
| 1777605045 | 28.89° C | 17% | 1007.1 hPa | 0 mm | - | 0 W/m² | - |
| 1777604740 | 28.89° C | 16% | 1007 hPa | 0 mm | - | 0 W/m² | - |
| 1777604432 | 28.89° C | 16% | 1006.9 hPa | 0 mm | - | 0 W/m² | - |
| 1777604132 | 28.89° C | 16% | 1007 hPa | 0 mm | - | 0 W/m² | - |
| 1777603828 | 28.89° C | 16% | 1006.8 hPa | 0 mm | - | 0 W/m² | - |
| 1777603525 | 28.89° C | 16% | 1006.6 hPa | 0 mm | - | 0 W/m² | - |
| 1777603220 | 28.89° C | 16% | 1006.7 hPa | 0 mm | - | 0 W/m² | - |
| 1777602916 | 28.89° C | 18% | 1006.6 hPa | 0 mm | - | 0 W/m² | - |
| 1777602612 | 28.89° C | 16% | 1006.5 hPa | 0 mm | - | 0 W/m² | - |
| 1777602302 | 28.89° C | 16% | 1006.6 hPa | 0 mm | - | 0 W/m² | - |
| 1777601997 | 28.89° C | 15% | 1006.5 hPa | 0 mm | - | 0 W/m² | - |
| 1777601693 | 28.89° C | 16% | 1006.3 hPa | 0 mm | - | 1 W/m² | - |
| 1777601388 | 29.44° C | 15% | 1006.4 hPa | 0 mm | - | 2 W/m² | - |
| 1777601084 | 29.44° C | 15% | 1006.1 hPa | 0 mm | - | 3 W/m² | - |
| 1777600782 | 29.44° C | 15% | 1006.3 hPa | 0 mm | - | 4 W/m² | - |
| 1777600478 | 29.44° C | 15% | 1006.2 hPa | 0 mm | - | 6 W/m² | - |
| 1777600173 | 29.44° C | 15% | 1006.2 hPa | 0 mm | - | 8 W/m² | - |
| 1777599870 | 30° C | 15% | 1006.3 hPa | 0 mm | - | 11 W/m² | - |
| 1777599566 | 30° C | 15% | 1006.3 hPa | 0 mm | - | 14 W/m² | - |
| 1777599263 | 30° C | 15% | 1006.1 hPa | 0 mm | - | 19 W/m² | - |
| 1777598959 | 30° C | 15% | 1006.1 hPa | 0 mm | - | 23 W/m² | - |
| 1777598656 | 30° C | 15% | 1006.2 hPa | 0 mm | - | 31 W/m² | - |
| 1777598352 | 30° C | 15% | 1006.2 hPa | 0 mm | - | 37 W/m² | - |
* Rain latest hour (hover to see other rain measurements)
** Current wind speed in m/s (hover to see current wind gust speed)